星链-35316(STARLINK-35316)

导读

STARLINK-35316是美国SpaceX星链(Starlink)星座的组网卫星,于2025年9月25日在美国佛罗里达州东部空军测试靶场发射。该卫星运行在近地轨道,平均轨道高度约482公里,倾角53.16度,轨道周期约94分钟,目前处于正常运营状态,为全球范围提供高速低延迟卫星互联网服务,助力星链星座网络覆盖扩容。

Basic Information
目录编号:
65742
目录名称:
STARLINK-35316
国际标识:
2025-216J
轨道中心:
EARTH
卫星名称:
星链-35316
卫星全名:
星链-35316(STARLINK-35316)
卫星状态:
在轨 (已飞行261 天)
发射日期:
2025-09-25 UTC
国别 :
美国 (US)
星等 :
--
Orbit Information
数据来源 国际轨道数据 AOE轨道数据
星历时间 2026-06-12T20:41:06+0800
1天前
查看轨道信息
2026-06-12T05:00:00+0800
1天前
查看轨道信息
半长轴 6853.327km 6853.389km
偏心率 0.0000958 0.0001173
轨道倾角 53.159° 53.158°
近地点辐角 80.864° 76.497°
升交点赤经 252.393° 255.429°
平近点角 279.247° 281.427°
近地点 474.533km 474.448km
远地点 475.847km 476.056km
周期 94.105分钟 94.106分钟
每日圈数 15.302087 15.301879
Detailed Information
固有亮度:
5
最大亮度:
2.5
卫星平台:
Starlink V1.0
覆盖范围:
全球
运营商:
太空探索技术公司
运营商所在国:
美国
制造商(研发单位):
太空探索技术公司
制造商所在国:
美国
使用方式:
暂无
Satellite Introduction
Starlink 计划是 SpaceX 推出的全球卫星互联网项目,通过发射低轨道卫星,为全球尤其是偏远地区提供高速、低延迟的互联网服务。自 2019 年起,Starlink 已部署数千颗卫星,旨在缩小全球数字鸿沟,推动互联网普及。该项目还为军事、航空等行业提供通信支持,带来广泛经济效益。
2D Orbit Map
3D Orbit Map
Orbit Altitude Analysis Chart
Orbit Inclination Analysis Chart
Orbit Comprehensive Analysis Chart
View Comprehensive Chart